Hourly Weather Roundup
Issued by NWS Central Illinois

Home | Current Version | Previous Version | Text Only | Print | Product List | Glossary On
Versions: 1 2 3 4 5 6 7 8 9 10 11 12 13 14 15 16 17 18 19 20 21 22 23 24 25 26 27 28 29 30 31 32 33 34 35 36 37 38 39 40 41 42 43 44 45 46 47 48 49 50
000
NZUS43 KILX 110210
HWRILX

AREA WEATHER ROUNDUP
NATIONAL WEATHER SERVICE, LINCOLN IL
800 PM CST WED FEB 10 2016


CITY           SKY/WX    TMP DP  RH WIND       PRES   REMARKS
BLOOMINGTON    CLEAR     16   7  67 W9        30.14R WCI   5
CHAMPAIGN      PTCLDY    18   9  68 W10       30.14R WCI   6
DANVILLE       CLOUDY    12   7  81 CALM      30.11R
DECATUR        CLOUDY    20  11  68 W7        30.16R WCI  11
EFFINGHAM      MOCLDY    19  16  86 SW5       30.18S WCI  13
FLORA          CLOUDY    22  18  87 SW5       30.18S WCI  15
GALESBURG      CLOUDY    17  12  79 CALM      30.15R
JACKSONVILLE   FLURRIES  21  17  83 CALM      30.15S
LACON          CLEAR     16   4  60 NW5       30.15S WCI   9
LAWRENCEVILLE  CLOUDY    21  13  71 W13       30.18R WCI   9
LITCHFIELD     FLURRIES  19  15  84 CALM      30.16R
$$


CITY           SKY/WX    TMP DP  RH WIND       PRES   REMARKS
LINCOLN        CLEAR     19  11  73 CALM      30.17R
MACOMB         CLOUDY    19  14  83 CALM      30.18R
MATTOON        CLOUDY    18  11  74 W6        30.14R WCI  10
MT CARMEL AP   CLOUDY    23  18  80 W10       30.17S WCI  12
OLNEY-NOBLE AP CLOUDY    21  18  86 W6        30.18S WCI  14
PARIS          PTCLDY    19  11  71 W10       30.16R WCI   7
PEORIA         MOCLDY    17   5  59 W5        30.16R WCI  10
PONTIAC        PTCLDY    16   9  73 W7        30.15R WCI   6
RANTOUL        MOCLDY    19  10  68 W5        30.14R WCI  12
ROBINSON       CLOUDY    20  12  72 W9        30.18S WCI   9
SPRINGFIELD    CLOUDY    20  15  81 W6        30.17R WCI  12
TAYLORVILLE    FLURRIES  19  16  86 W5        30.17R WCI  13
$$

...REGIONAL REPORTS...


CITY           SKY/WX    TMP DP  RH WIND       PRES   REMARKS
CHICAGO O`HARE MOCLDY    13   1  59 N10       30.12R WCI   0
KANKAKEE       PTCLDY    17   6  61 NW6       30.14R WCI   8
MOLINE         CLEAR     16   2  54 NW6       30.16R WCI   7
MOUNT STERLING CLOUDY    18  15  86 CALM      30.13F
MOUNT VERNON   CLOUDY    19  14  79 CALM      30.17S
PITTSFIELD     CLOUDY    21  17  85 E3        30.15S
QUINCY         CLOUDY    20  15  81 E6        30.13S WCI  12
ROCKFORD       PTCLDY    11   0  61 N5        30.15R WCI   3
$$


CITY           SKY/WX    TMP DP  RH WIND       PRES   REMARKS
BURLINGTON     CLOUDY    19  14  81 CALM      30.14R
CEDAR RAPIDS   CLOUDY    13   4  67 N9        30.15R WCI   1
DES MOINES     CLOUDY    19  11  70 NE10      30.15R WCI   7
KIRKSVILLE     CLOUDY    21  16  81 E7        30.10S WCI  12
OTTUMWA        CLOUDY    18  14  84 NE6       30.15R WCI  10
ST LOUIS       FLURRIES  24  17  74 SE3       30.16R
$$


CITY           SKY/WX    TMP DP  RH WIND       PRES   REMARKS
TERRE HAUTE    CLOUDY    20   8  60 W8        30.15R WCI  10
EVANSVILLE     CLOUDY    23  16  74 W10       30.19S WCI  12
INDIANAPOLIS   CLOUDY    14   6  70 W5        30.11R WCI   6
LAFAYETTE      PTCLDY    12   5  73 CALM      30.13R
MADISON        CLEAR      6  -2  69 CALM      30.12R
MILWAUKEE      MOCLDY    11  -2  56 NW6       30.13R WCI   1
$$





USA.gov is the U.S. government's official web portal to all federal, state and local government web resources and services.